Regional Weather Roundup
Issued by NWS

Home | Current Version | Previous Version | Graphics & Text | Print | Product List | Glossary On
Versions: 1 2 3 4 5 6 7 8 9 10 11 12 13 14 15 16 17 18 19 20 21 22 23 24 25 26 27 28 29 30 31 32 33 34 35 36 37 38 39 40 41 42 43 44 45 46
000
ASUS45 KTFX 072110
RWRMT
MONTANA REGIONAL WEATHER ROUNDUP
NATIONAL WEATHER SERVICE GREAT FALLS MT
200 PM MST SUN FEB 07 2016

NOTE: "FAIR" INDICATES FEW OR NO CLOUDS BELOW 12000 FEET WITH NO
SIGNIFICANT WEATHER AND/OR OBSTRUCTIONS TO VISIBILITY.

MTZ001>007-043-072200-
WEST OF THE DIVIDE

CITY           SKY/WX    TMP DP  RH WIND       PRES   REMARKS
KALISPELL      SUNNY     36  23  59 CALM      30.57R
MISSOULA       SUNNY     35  21  56 CALM      30.59F
BUTTE          SUNNY     34  15  46 NW3       30.48S
MULLAN PASS    MOSUNNY   29  19  66 VRB5      30.49F
ANACONDA         N/A     34  16  47 N8        30.50R WCI  27
DEER LODGE       N/A     32  19  59 W3        30.53S
HAMILTON         N/A     41  23  48 N7        30.55R
LIBBY            N/A     39  23  52 CALM      30.59
PLAINS           N/A     41  24  51 NW1       30.54F
$$

MTZ008-052>055-072200-
SOUTHWEST MONTANA

CITY           SKY/WX    TMP DP  RH WIND       PRES   REMARKS
BOZEMAN        SUNNY     34  22  61 CALM      30.49F
DILLON         SUNNY     37  21  52 N5        30.46S
ENNIS          SUNNY     41   5  22 VRB5      30.52S
TWIN BRIDGES     N/A     38  21  50 CALM      30.41F
$$

MTZ009-010-012-014-046-048-049-054-072200-
EAST SLOPES AND CENTRAL MONTANA

CITY           SKY/WX    TMP DP  RH WIND       PRES   REMARKS
CUT BANK       SUNNY     41  10  28 W13       30.40F
GREAT FALLS    SUNNY     43   8  23 W12       30.43F
MALMSTROM AFB  SUNNY     42   9  26 W10       30.45F
HELENA         SUNNY     41  17  38 W18       30.46F
CHOTEAU          N/A     43   5  21 CALM      30.42F
CONRAD           N/A     43  11  27 NW3       30.39F
$$

MTZ011-013-016-021-045-047-050-051-072200-
NORTH CENTRAL MONTANA

CITY           SKY/WX    TMP DP  RH WIND       PRES   REMARKS
HAVRE          SUNNY     41  11  29 NW15      30.44F
LEWISTOWN      SUNNY     36  12  37 NW9       30.41F WCI  29
N BAR RANCH      N/A     34   5  29 NW21G30   30.40F WCI  22
CHINOOK          N/A     41  10  28 NW21G29   30.42S
$$

MTZ017>020-022>027-061-062-072200-
NORTHEAST MONTANA

CITY           SKY/WX    TMP DP  RH WIND       PRES   REMARKS
GLASGOW        SUNNY     35  20  54 NW30G36   30.32R WCI  22
JORDAN           N/A     37  17  44 NW31G39   30.35S WCI  24
SIDNEY         MOSUNNY   37  14  38 NW32G45   30.22R WCI  25
WOLF POINT     SUNNY     40  20  44 NW35G45   30.29R
PLENTYWOOD       N/A     34  21  60 NW31G43   30.17R WCI  20
POPLAR           N/A     37  18  44 NW29G46   30.25R WCI  25
SCOBEY           N/A     35  13  40 NW26      30.20R WCI  22
$$

MTZ028>42-056>058-072200-
SOUTHCENTRAL AND SOUTHEAST MONTANA

CITY           SKY/WX    TMP DP  RH WIND       PRES   REMARKS
BAKER          MOSUNNY   36  12  37 NW39G48   30.22  WCI  21
BILLINGS       MOSUNNY   42   7  23 N21G31    30.40F
LIVINGSTON     SUNNY     43   9  24 W28G36    30.41F
MILES CITY     SUNNY     40  13  33 NW29G43   30.32F
EKALAKA          N/A     34   5  29 NW33      30.18S WCI  20
FORSYTH          N/A     39   9  28 NW23G35   30.36F WCI  29
LAUREL           N/A     43   8  23 NW7       30.35F
ROUNDUP          N/A     39   2  21 NW18      30.28F WCI  29
$$

REGIONAL REPORTS...DAKOTAS

CITY           SKY/WX    TMP DP  RH WIND       PRES   REMARKS
WILLISTON      SUNNY     37  18  46 NW30G43   30.18R WCI  24
MINOT          FLURRIES  32  16  51 NW35G49   30.00R WCI  17
DICKINSON      MOSUNNY   35  11  36 NW37G49   30.09R WCI  21
BEACH          CLOUDY    34  14  44 NW35G46   30.22R WCI  19
CROSBY           N/A     34  19  55 NW29G48   30.13R WCI  20
TIOGA          FLURRIES  32  19  59 NW37G47   30.14R WCI  16
WATFORD CITY     N/A     36  14  41 NW32G48   30.14R WCI  22
BISMARCK       CLOUDY    34  18  52 NW31G54   30.00R WCI  20
GRAND FORKS    LGT SNOW  20   9  62 NW38G46   29.82R BLWGSNOWWCI  -1
FARGO          LGT SNOW  23  18  81 N32G40    29.81R VSB 1   WCI   5
BUFFALO SD       N/A     39   9  29 NW51G66   30.07R WCI  24
RAPID CITY     SUNNY     39   7  26 NW45G60   30.15S WCI  25
$$

REGIONAL REPORTS...WYOMING/IDAHO/WASHINGTON

CITY           SKY/WX    TMP DP  RH WIND       PRES   REMARKS
GILLETTE       SUNNY     33  13  43 NW30G43   30.30F WCI  19
SHERIDAN       PTSUNNY   36   7  30 N17       30.36F WCI  25
BUFFALO WY     CLOUDY    31  13  47 N28G38    30.33S WCI  17
CODY           SUNNY     37  16  41 NE13      30.37F WCI  29
YELLOWSTONE LA   N/A     31   8  38 VRB6      30.44S WCI  25
IDAHO FALLS    CLOUDY    25  22  88 NW12      30.58F FOG     WCI  14
SALMON         SUNNY     25  16  68 CALM      30.59F
BOISE          SUNNY     47  35  63 NW8       30.60F
SPOKANE        PTSUNNY   36  31  82 N3        30.59F
$$

REGIONAL REPORTS...ALBERTA

CITY           SKY/WX    TMP DP  RH WIND       PRES   REMARKS
EDMONTON       SUNNY     34  19  55 W9        30.33F WCI  26
CALGARY        PTSUNNY   39   5  24 CALM      30.36S
LETHBRIDGE     PTSUNNY   41   5  22 W8        30.40F
MEDICINE HAT   PTSUNNY   41   9  26 NW16G22   30.41F
WATERTON GATE    N/A     37  10  32 SW21G32     N/A  WCI  27
MILK RIVER       N/A     39   5  24 W7          N/A
$$

REGIONAL REPORTS...SASKATCHEWAN

CITY           SKY/WX    TMP DP  RH WIND       PRES   REMARKS
SWIFT CURRENT  SUNNY     34  18  51 NW25G36   30.27R WCI  21
REGINA         MOSUNNY   30  21  69 NW30G39   30.17R WCI  15
SASKATOON      MOSUNNY   30  21  69 NW21G29   30.25R WCI  17
CYPRESS HILLS    N/A     30   7  37 NW12G23     N/A  WCI  21
VAL MARIE        N/A     37  10  32 NW29G36     N/A  WCI  25
ROCKGLEN         N/A     32  16  51 NW32G43     N/A  WCI  17
ASSINIBOIA       N/A     34  19  55 W9          N/A  WCI  26
$$



USA.gov is the U.S. government's official web portal to all federal, state and local government web resources and services.